[[{"header":{"parameterUnit":"m.s-1","parameterCategory":1,"la1":30.2991,"la2":30.254,"lo1":-89.0895,"lo2":-89.0444,"dy":0.0017,"dx":0.0017,"nx":28,"ny":28,"refTime":"2025-07-22T21:00:00:Z","depth":0,"parameterNumber":2,"parameterNumberName":"U-component_of_WINDS"},"data":[0,0,0,0,0,0,0,0,0,0,0,0,0,0,0,0,0,0,0,0,0,0,0,0,0,0,0,0,0,0,0,0,0,0,0,0,0,0,0,0,0,0,0,0,0,0,0,0,0,0,0,0,0,0,0,0,0,0,2.9493,2.9494,0,2.9604,2.9606,2.9607,2.9545,2.9542,2.9539,2.9536,2.9657,2.9663,2.9669,0,0,0,0,0,0,0,0,0,0,0,0,0,2.9235,2.924,2.9493,2.9494,2.9496,2.9604,2.9606,2.9607,2.9546,2.9542,2.9538,2.9535,2.9655,2.9663,2.967,0,0,0,0,0,0,0,0,0,0,0,0,0,2.9347,2.9242,2.9493,2.9478,2.9478,2.9604,2.9606,2.9608,2.9547,2.9542,2.9537,2.9533,2.9653,2.9662,2.9671,2.982,0,0,2.9699,2.9703,0,0,0,0,0,0,0,0,2.9341,2.9357,2.9479,2.9479,2.9479,2.9556,2.9559,2.9679,2.9548,2.9521,2.9536,2.9531,2.9628,2.9639,2.967,2.9826,2.9831,2.97,2.9705,2.9709,2.9712,0,0,0,0,0,0,0,2.9333,2.9352,2.9537,2.9481,2.9481,2.9469,2.9479,2.9582,2.9599,2.9523,2.9518,2.9532,2.9627,2.9661,2.9673,2.9833,2.97,2.9708,2.9713,2.9717,3.0117,3.0122,0,0,0,0,0,0,2.9326,2.9346,2.9534,2.9541,2.9397,2.9477,2.9489,2.9536,2.9598,2.9603,2.9536,2.9529,2.9648,2.9662,2.9677,2.9855,2.9709,2.9718,2.9723,3.0112,3.0118,3.0124,0,0,0,0,0,0,2.932,2.9343,2.9529,2.9442,2.9465,2.9486,2.954,2.9541,2.9575,2.9608,2.9611,2.9567,2.9645,2.9664,2.9784,2.9858,2.9722,2.973,3.0106,3.0114,3.0121,3.0213,0,0,0,0,0,0,2.9313,2.9341,2.9396,2.9444,2.947,2.9633,2.9544,2.9546,2.959,2.9582,2.9638,2.9643,2.9643,2.9771,2.9794,2.9868,2.9737,3.01,3.011,3.0119,3.0203,3.0223,3.0239,0,0,0,0,0,2.9304,2.9419,2.9399,2.9422,2.9538,2.9637,2.9652,2.9648,2.9596,2.9652,2.9674,2.9641,2.9847,2.9784,2.9809,2.9887,3.0095,3.0107,3.0118,3.0195,3.0219,3.0239,0,0,0,0,0,0,2.9381,2.9425,2.9403,2.9536,2.9583,2.9627,2.9697,2.9673,2.9738,2.9727,2.9722,2.9735,2.9861,2.9886,2.9816,3.0036,2.9963,2.998,3.0013,3.0036,3.0054,3.0045,2.9745,0,0,0,0,0,2.9414,2.9488,2.9523,2.9637,2.9662,2.9676,2.9719,2.9711,2.9761,2.9781,2.9811,2.9863,2.9939,2.9989,3.0061,3.0207,3.0219,3.0274,3.0292,3.0307,3.0321,3.0401,3.0426,3.0162,3.0162,3.0162,0,0,2.9482,2.9515,2.9562,2.9654,2.9689,2.9769,2.9693,2.978,2.984,2.9795,2.991,2.9935,2.9992,3.0126,3.0187,3.0151,3.0397,3.0322,3.0333,3.034,3.0416,3.044,3.0463,3.017,3.0169,3.0167,0,0,2.9645,2.9678,2.9776,2.9813,2.9867,2.9876,2.99,2.9948,2.9961,3.0076,3.0044,3.0117,3.0248,3.029,3.0329,3.0511,3.0483,3.0535,3.0629,3.0707,3.0727,3.0746,3.081,3.0834,3.055,3.055,3.055,0,2.9723,2.9839,2.9831,2.992,2.9962,2.9924,3.0025,3.0062,3.0138,3.0169,3.0128,3.0292,3.0328,3.0472,3.0516,3.0549,3.0577,3.0528,3.0725,3.0743,3.076,3.0822,3.0846,3.0556,3.0555,3.0554,3.0554,0,2.9933,3.0014,3.0088,3.0159,3.021,3.0305,3.0313,3.0366,3.0355,3.0369,3.0488,3.053,3.061,3.0644,3.0635,3.0787,3.0763,3.0724,3.0651,3.0791,3.0849,3.0872,3.0564,3.0562,3.056,3.0559,0,0,3.0146,3.0212,3.024,3.0272,3.033,3.0394,3.0489,3.0565,3.061,3.0665,3.0745,3.0858,3.0822,3.0866,3.0862,3.093,3.1072,3.0883,3.0884,3.0916,3.1242,3.127,3.1297,3.1054,3.1059,3.1062,3.1237,0,3.0313,3.0475,3.0471,3.0623,3.0698,3.0664,3.0747,3.0793,3.081,3.0878,3.0898,3.0977,3.0924,3.095,3.1017,3.104,3.1137,3.1028,3.113,3.1134,3.1115,3.1328,3.1357,3.152,3.126,3.1263,3.1266,0,3.0528,3.0587,3.0746,3.0793,3.0825,3.0899,3.0969,3.1035,3.1088,3.1095,3.1145,3.113,3.1229,3.1154,3.1291,3.1217,3.1259,3.1277,3.1284,3.1292,3.1207,3.1341,3.1572,3.1595,3.1302,3.1299,3.1296,0,3.0667,3.0787,3.0898,3.0927,3.0985,3.1038,3.1065,3.1113,3.1159,3.1222,3.1252,3.1326,3.1367,3.1426,3.1433,3.1378,3.1571,3.1496,3.158,3.158,3.1621,3.1618,3.1861,3.1651,3.165,3.165,3.1649,0,3.0852,3.0951,3.0961,3.1028,3.1139,3.1135,3.1245,3.1268,3.1311,3.1384,3.1361,3.1431,3.1436,3.1509,3.1516,3.1628,3.1648,3.1657,3.1657,3.1658,3.1657,3.1685,3.1673,3.1656,3.1655,3.1654,3.1653,0,3.1025,3.1035,3.1153,3.1199,3.1213,3.1292,3.1332,3.1398,3.1413,3.1506,3.1528,3.1553,3.1637,3.165,3.175,3.1755,3.1889,3.1879,3.187,3.1868,3.1951,3.1943,3.2219,3.2255,3.2023,3.2025,3.2027,0,3.1141,3.1216,3.1269,3.1316,3.1345,3.1421,3.1467,3.1468,3.1519,3.1585,3.1643,3.1725,3.179,3.1928,3.1956,3.2032,3.2023,3.2115,3.2034,3.2033,3.2023,3.2018,3.2025,3.2129,3.2132,3.2134,3.2136,0,3.1347,3.1349,3.1416,3.1486,3.1542,3.1597,3.165,3.169,3.1698,3.1756,3.1841,3.1892,3.1993,3.2075,3.2151,3.2182,3.2161,3.2161,3.2184,3.2185,3.2177,3.2181,3.1911,3.2154,3.2152,3.2151,3.215,3.2149,3.1495,3.1559,3.1607,3.1683,3.1722,3.1772,3.1836,3.1859,3.1929,3.201,3.2007,3.2101,3.2154,3.2254,3.229,3.2365,3.2335,3.2369,3.2378,3.2386,3.2393,3.2166,3.2379,3.2379,3.2378,3.2378,3.2377,0,3.1698,3.1727,3.1797,3.187,3.1931,3.1905,3.1962,3.2015,3.2097,3.2147,3.2211,3.231,3.239,3.2424,3.2503,3.2557,3.2549,3.2577,3.2573,3.258,3.2415,3.2387,3.2582,3.2582,3.2582,3.2582,3.2582,3.2582,3.1811,3.1919,3.1927,3.2055,3.2085,3.2174,3.2209,3.2256,3.2296,3.2406,3.2471,3.2493,3.2538,3.262,3.2693,3.2701,3.2731,3.2764,3.2768,3.2613,3.2592,3.2572,3.2545,3.277,3.2771,3.2926,3.2927,3.2928]},{"header":{"parameterUnit":"m.s-1","parameterCategory":1,"la1":30.2991,"la2":30.254,"lo1":-89.0895,"lo2":-89.0444,"dy":0.0017,"dx":0.0017,"nx":28,"ny":28,"refTime":"2025-07-22T21:00:00:Z","depth":0,"parameterNumber":3,"parameterNumberName":"V-component_of_WINDS"},"data":[0,0,0,0,0,0,0,0,0,0,0,0,0,0,0,0,0,0,0,0,0,0,0,0,0,0,0,0,0,0,0,0,0,0,0,0,0,0,0,0,0,0,0,0,0,0,0,0,0,0,0,0,0,0,0,0,0,0,2.4747,2.4748,0,2.4857,2.4859,2.486,2.4821,2.4818,2.4816,2.4813,2.4924,2.4929,2.4934,0,0,0,0,0,0,0,0,0,0,0,0,0,2.4497,2.4502,2.4747,2.4748,2.475,2.4857,2.4859,2.486,2.4821,2.4818,2.4815,2.4812,2.4922,2.4928,2.4935,0,0,0,0,0,0,0,0,0,0,0,0,0,2.4606,2.4503,2.4747,2.4743,2.4744,2.4857,2.4859,2.4861,2.4822,2.4818,2.4814,2.4811,2.492,2.4928,2.4936,2.5058,0,0,2.496,2.4963,0,0,0,0,0,0,0,0,2.46,2.4615,2.4742,2.4744,2.4745,2.4821,2.4811,2.4927,2.4823,2.4792,2.4813,2.4809,2.4893,2.4903,2.4931,2.5063,2.5068,2.496,2.4965,2.4968,2.4971,0,0,0,0,0,0,0,2.4593,2.461,2.479,2.4744,2.4746,2.4734,2.4746,2.4833,2.4862,2.4794,2.4792,2.4806,2.4893,2.4924,2.4934,2.5069,2.496,2.4967,2.4972,2.4975,2.5302,2.5306,0,0,0,0,0,0,2.4585,2.4604,2.4787,2.4794,2.4662,2.4742,2.4755,2.48,2.4861,2.4866,2.4809,2.4803,2.4912,2.4924,2.4937,2.5081,2.4968,2.4976,2.498,2.5298,2.5303,2.5307,0,0,0,0,0,0,2.458,2.4602,2.4782,2.4698,2.4721,2.475,2.4802,2.4805,2.4836,2.4871,2.4876,2.4836,2.491,2.4926,2.5027,2.5085,2.4979,2.4986,2.5293,2.53,2.5305,2.5373,0,0,0,0,0,0,2.4573,2.46,2.4648,2.47,2.4725,2.4873,2.4806,2.4809,2.485,2.4844,2.4898,2.4903,2.4908,2.5016,2.5035,2.5094,2.4993,2.5288,2.5296,2.5303,2.5365,2.538,2.5393,0,0,0,0,0,2.4564,2.4663,2.4651,2.4673,2.4786,2.4876,2.489,2.4895,2.4855,2.4902,2.4924,2.4901,2.5076,2.5027,2.5048,2.511,2.5285,2.5294,2.5303,2.5359,2.5377,2.5392,0,0,0,0,0,0,2.4618,2.467,2.4657,2.4776,2.4822,2.4869,2.493,2.4914,2.4972,2.4964,2.4966,2.4978,2.5082,2.5106,2.505,2.5229,2.5174,2.5188,2.5209,2.5227,2.524,2.5232,2.4999,0,0,0,0,0,2.4644,2.4713,2.4755,2.4856,2.4879,2.4901,2.494,2.4939,2.4986,2.5005,2.5035,2.508,2.5144,2.5187,2.5249,2.5369,2.5378,2.5421,2.5435,2.5446,2.5458,2.5519,2.5538,2.5337,2.5337,2.5336,0,0,2.4697,2.4734,2.4778,2.4867,2.4903,2.4972,2.4917,2.4995,2.5046,2.5017,2.5113,2.5136,2.5187,2.5297,2.5347,2.532,2.5515,2.5458,2.5466,2.5472,2.553,2.5549,2.5566,2.5343,2.5342,2.5341,0,0,2.4831,2.4867,2.4954,2.499,2.5044,2.5057,2.5077,2.5126,2.5141,2.5238,2.5216,2.5276,2.5389,2.5424,2.5457,2.56,2.558,2.562,2.5692,2.5751,2.5767,2.5781,2.5829,2.5847,2.5632,2.5632,2.5632,0,2.4891,2.4997,2.5,2.5078,2.5116,2.5093,2.5179,2.5213,2.5285,2.531,2.528,2.5417,2.545,2.5566,2.5601,2.5629,2.5651,2.5614,2.5765,2.5779,2.5792,2.5838,2.5856,2.5636,2.5636,2.5635,2.5635,0,2.5066,2.514,2.5203,2.5271,2.5317,2.5399,2.5412,2.5457,2.5452,2.5467,2.5564,2.5602,2.5669,2.5697,2.5693,2.5812,2.5793,2.5764,2.5708,2.5815,2.5858,2.5876,2.5643,2.5641,2.564,2.5639,0,0,2.5238,2.5305,2.5328,2.5358,2.5414,2.547,2.5549,2.5615,2.5652,2.5701,2.5766,2.5859,2.5832,2.5869,2.5868,2.5921,2.6028,2.5885,2.5886,2.5908,2.6157,2.6177,2.6198,2.6015,2.6018,2.6021,2.6152,0,2.5374,2.5514,2.5518,2.5645,2.5711,2.5688,2.5756,2.5797,2.5813,2.5869,2.5886,2.5952,2.5912,2.5933,2.5985,2.6004,2.6077,2.5995,2.6073,2.6075,2.6059,2.6221,2.6244,2.6366,2.6169,2.6172,2.6174,0,2.5552,2.5606,2.574,2.5783,2.5811,2.5873,2.5931,2.5987,2.6031,2.6038,2.6079,2.6069,2.6147,2.6089,2.6195,2.6138,2.617,2.6184,2.6189,2.6195,2.613,2.623,2.6405,2.6423,2.6201,2.6199,2.6197,0,2.566,2.5767,2.5859,2.5886,2.594,2.5983,2.6007,2.6048,2.6086,2.6136,2.6161,2.622,2.6252,2.6297,2.6302,2.626,2.6407,2.6351,2.6413,2.6413,2.6445,2.6443,2.6626,2.6468,2.6468,2.6468,2.6467,0,2.5811,2.5893,2.5908,2.5966,2.6056,2.6058,2.6146,2.6167,2.6202,2.6261,2.6245,2.63,2.6305,2.6361,2.6365,2.645,2.6465,2.6472,2.6472,2.6472,2.6471,2.6492,2.6483,2.6473,2.6471,2.6471,2.647,0,2.5948,2.5962,2.6061,2.6103,2.6115,2.6179,2.6214,2.6267,2.628,2.6355,2.6372,2.6392,2.6457,2.6467,2.6543,2.6546,2.6647,2.6639,2.6632,2.6631,2.6692,2.6685,2.6893,2.692,2.6747,2.6748,2.675,0,2.6042,2.6105,2.6153,2.6191,2.6217,2.628,2.6318,2.6321,2.6362,2.6415,2.6461,2.6524,2.6574,2.6678,2.6698,2.6755,2.6747,2.6816,2.6756,2.6754,2.6746,2.6741,2.6746,2.6828,2.683,2.6831,2.6833,0,2.6208,2.621,2.6267,2.6325,2.6371,2.6417,2.6461,2.6493,2.6501,2.6547,2.6613,2.6652,2.6728,2.679,2.6846,2.6868,2.6851,2.6851,2.6868,2.6869,2.6862,2.6864,2.6662,2.6847,2.6845,2.6844,2.6843,2.6843,2.6324,2.6377,2.6419,2.6481,2.6514,2.6554,2.6605,2.6624,2.6679,2.6742,2.674,2.6812,2.6851,2.6924,2.695,2.7005,2.6982,2.7007,2.7013,2.7019,2.7024,2.6854,2.7015,2.7015,2.7014,2.7014,2.7014,0,2.6487,2.6512,2.6569,2.6629,2.6678,2.6658,2.6704,2.6745,2.6808,2.6847,2.6896,2.697,2.7029,2.7053,2.711,2.7149,2.7142,2.7163,2.716,2.7164,2.7042,2.7021,2.7167,2.7167,2.7167,2.7167,2.7167,2.7167,2.6577,2.6664,2.6672,2.6774,2.6798,2.6869,2.6896,2.6932,2.6962,2.7045,2.7094,2.7109,2.7141,2.72,2.7252,2.7257,2.7278,2.7302,2.7304,2.7189,2.7174,2.7159,2.7138,2.7307,2.7307,2.7421,2.7422,2.7423]}]]